| time (UTC) | temp F | wind direction | speed MPH | gust MPH | rain 1hr in | rain 24hr in | rain mn in | humidity % | barometer mb |
| 20260831092311 | 66 | 263 | 10.0 | 20.0 | 0.00 | 0.00 | 0.00 | 76 | 6.6 |
| 20260831091312 | 66 | 267 | 6.0 | 17.0 | 0.00 | 0.00 | 0.00 | 75 | 6.6 |
| 20260831085311 | 67 | 294 | 9.0 | 19.0 | 0.00 | 0.00 | 0.00 | 73 | 6.5 |
| 20260831084312 | 67 | 234 | 8.0 | 19.0 | 0.00 | 0.00 | 0.00 | 75 | 6.4 |
| 20260831083311 | 66 | 255 | 5.0 | 14.0 | 0.00 | 0.00 | 0.00 | 79 | 6.3 |
| 20260831082311 | 65 | 206 | 6.0 | 17.0 | 0.00 | 0.00 | 0.00 | 79 | 6.3 |
| 20260831081312 | 65 | 265 | 3.0 | 9.0 | 0.00 | 0.00 | 0.00 | 82 | 6.4 |
| 20260831080311 | 64 | 202 | 6.0 | 13.0 | 0.00 | 0.00 | 0.00 | 82 | 6.5 |
| 20260831075311 | 64 | 251 | 2.0 | 9.0 | 0.00 | 0.00 | 0.00 | 86 | 6.3 |
| 20260831074311 | 63 | 241 | 3.0 | 10.0 | 0.00 | 0.00 | 0.00 | 86 | 6.4 |
| 20260831073311 | 63 | 236 | 3.0 | 11.0 | 0.00 | 0.00 | 0.00 | 86 | 6.5 |
| 20260831072311 | 63 | 276 | 3.0 | 13.0 | 0.00 | 0.00 | 0.00 | 85 | 6.6 |
| 20260831070310 | 63 | 208 | 5.0 | 9.0 | 0.00 | 0.00 | 0.00 | 86 | 6.6 |
| 20260831065311 | 63 | 246 | 4.0 | 11.0 | 0.00 | 0.00 | 0.00 | 85 | 6.8 |
| 20260831064311 | 63 | 250 | 3.0 | 18.0 | 0.00 | 0.00 | 0.00 | 86 | 7.0 |
| 20260831063310 | 63 | 182 | 5.0 | 13.0 | 0.00 | 0.00 | 0.00 | 87 | 6.9 |
| 20260831062310 | 62 | 230 | 4.0 | 14.0 | 0.00 | 0.00 | 0.00 | 87 | 7.0 |
| 20260831061312 | 61 | 195 | 4.0 | 9.0 | 0.00 | 0.00 | 0.00 | 88 | 6.7 |
| 20260831055310 | 61 | 237 | 2.0 | 8.0 | 0.00 | 0.00 | 0.00 | 89 | 6.5 |
| 20260831054310 | 61 | 250 | 2.0 | 13.0 | 0.00 | 0.00 | 0.00 | 89 | 6.6 |
| 20260831053311 | 60 | 218 | 2.0 | 6.0 | 0.00 | 0.00 | 0.00 | 90 | 6.5 |
| 20260831052311 | 60 | 193 | 2.0 | 6.0 | 0.00 | 0.00 | 0.00 | 90 | 6.5 |
| 20260831051311 | 60 | 239 | 2.0 | 9.0 | 0.00 | 0.00 | 0.00 | 90 | 6.6 |
| 20260831050311 | 60 | 209 | 2.0 | 9.0 | 0.00 | 0.00 | 0.00 | 89 | 6.6 |
| 20260831044311 | 60 | 244 | 3.0 | 9.0 | 0.00 | 0.00 | 0.00 | 89 | 6.4 |
| 20260831043312 | 60 | 261 | 2.0 | 8.0 | 0.00 | 0.00 | 0.00 | 89 | 6.2 |
| 20260831042310 | 60 | 240 | 2.0 | 9.0 | 0.00 | 0.00 | 0.00 | 90 | 6.2 |
| 20260831041311 | 60 | 232 | 3.0 | 7.0 | 0.00 | 0.00 | 0.00 | 90 | 6.4 |
| 20260831035311 | 61 | 251 | 2.0 | 7.0 | 0.00 | 0.00 | 0.00 | 89 | 6.2 |
| 20260831034311 | 61 | 275 | 1.0 | 7.0 | 0.00 | 0.00 | 0.00 | 90 | 6.4 |
| 20260831033310 | 61 | 244 | 1.0 | 5.0 | 0.00 | 0.00 | 0.00 | 90 | 6.5 |
| 20260831032311 | 61 | 215 | 2.0 | 8.0 | 0.00 | 0.00 | 0.00 | 90 | 6.6 |
| 20260831031311 | 61 | 235 | 2.0 | 3.0 | 0.00 | 0.00 | 0.00 | 89 | 6.7 |
| 20260831024310 | 61 | 233 | 1.0 | 3.0 | 0.00 | 0.00 | 0.00 | 90 | 6.6 |
| 20260831023311 | 61 | 232 | 1.0 | 5.0 | 0.00 | 0.00 | 0.00 | 90 | 6.5 |
| 20260831022311 | 61 | 216 | 0.0 | 2.0 | 0.00 | 0.00 | 0.00 | 89 | 6.5 |
| 20260831021312 | 61 | 231 | 0.0 | 6.0 | 0.00 | 0.00 | 0.00 | 89 | 6.7 |
| 20260831020311 | 61 | 236 | 1.0 | 3.0 | 0.00 | 0.00 | 0.00 | 89 | 6.9 |
| 20260831015310 | 61 | 228 | 0.0 | 4.0 | 0.00 | 0.00 | 0.00 | 88 | 6.8 |
| 20260831014311 | 61 | 213 | 0.0 | 3.0 | 0.00 | 0.00 | 0.00 | 88 | 6.8 |
| 20260831013311 | 62 | 204 | 0.0 | 5.0 | 0.00 | 0.00 | 0.00 | 88 | 6.8 |
| 20260831012310 | 62 | 204 | 1.0 | 5.0 | 0.00 | 0.00 | 0.00 | 89 | 6.9 |
| 20260831011310 | 62 | 215 | 0.0 | 3.0 | 0.00 | 0.00 | 0.00 | 89 | 7.0 |
| 20260831005311 | 62 | 200 | 0.0 | 4.0 | 0.00 | 0.00 | 0.00 | 88 | 7.1 |
| 20260831004312 | 62 | 224 | 1.0 | 3.0 | 0.00 | 0.00 | 0.00 | 88 | 7.2 |
| 20260831003311 | 62 | 229 | 1.0 | 4.0 | 0.00 | 0.00 | 0.00 | 88 | 7.1 |
| 20260831002311 | 62 | 218 | 1.0 | 3.0 | 0.00 | 0.00 | 0.00 | 88 | 7.4 |
| 20260831000311 | 62 | 218 | 1.0 | 4.0 | 0.00 | 0.00 | 0.00 | 88 | 7.5 |
| 20260830235310 | 62 | 217 | 0.0 | 5.0 | 0.00 | 0.00 | 0.00 | 88 | 7.4 |
| 20260830234310 | 62 | 234 | 2.0 | 4.0 | 0.00 | 0.00 | 0.00 | 88 | 7.7 |
| 20260830233311 | 62 | 236 | 0.0 | 4.0 | 0.00 | 0.00 | 0.00 | 87 | 7.7 |
| 20260830232310 | 62 | 216 | 0.0 | 3.0 | 0.00 | 0.00 | 0.00 | 87 | 7.5 |
| 20260830231311 | 62 | 216 | 0.0 | 3.0 | 0.00 | 0.00 | 0.00 | 86 | 7.3 |
| 20260830230310 | 62 | 218 | 0.0 | 5.0 | 0.00 | 0.00 | 0.00 | 86 | 7.2 |
| 20260830225310 | 62 | 213 | 1.0 | 3.0 | 0.00 | 0.00 | 0.00 | 86 | 7.4 |
| 20260830224310 | 62 | 211 | 0.0 | 4.0 | 0.00 | 0.00 | 0.00 | 85 | 7.4 |
| 20260830223310 | 62 | 220 | 1.0 | 4.0 | 0.00 | 0.00 | 0.00 | 85 | 7.5 |
| 20260830222310 | 62 | 217 | 1.0 | 4.0 | 0.00 | 0.00 | 0.00 | 85 | 7.6 |
| 20260830221310 | 63 | 234 | 1.0 | 3.0 | 0.00 | 0.00 | 0.00 | 85 | 7.6 |
| 20260830220310 | 63 | 226 | 0.0 | 2.0 | 0.00 | 0.00 | 0.00 | 84 | 7.6 |
| 20260830215310 | 63 | 240 | 1.0 | 6.0 | 0.00 | 0.02 | 0.02 | 84 | 8.0 |
| 20260830214310 | 63 | 236 | 1.0 | 4.0 | 0.00 | 0.02 | 0.02 | 83 | 8.1 |
| 20260830213312 | 63 | 198 | 0.0 | 5.0 | 0.00 | 0.02 | 0.02 | 83 | 8.1 |
| 20260830212311 | 64 | 234 | 1.0 | 3.0 | 0.00 | 0.02 | 0.02 | 83 | 8.2 |
| 20260830211311 | 64 | 234 | 0.0 | 3.0 | 0.00 | 0.02 | 0.02 | 83 | 8.3 |
| 20260830205311 | 64 | 230 | 0.0 | 4.0 | 0.00 | 0.02 | 0.02 | 83 | 8.3 |
| 20260830204310 | 64 | 215 | 0.0 | 4.0 | 0.00 | 0.02 | 0.02 | 83 | 8.3 |
| 20260830203311 | 64 | 194 | 0.0 | 0.0 | 0.00 | 0.02 | 0.02 | 83 | 8.4 |
| 20260830202310 | 64 | 193 | 0.0 | 0.0 | 0.00 | 0.02 | 0.02 | 83 | 8.3 |
| 20260830200311 | 65 | 193 | 0.0 | 2.0 | 0.00 | 0.02 | 0.02 | 82 | 8.6 |
| 20260830195310 | 65 | 196 | 0.0 | 2.0 | 0.00 | 0.02 | 0.02 | 82 | 8.6 |
| 20260830194311 | 65 | 196 | 0.0 | 1.0 | 0.00 | 0.02 | 0.02 | 83 | 8.7 |
| 20260830193311 | 65 | 196 | 0.0 | 1.0 | 0.00 | 0.02 | 0.02 | 84 | 8.8 |
| 20260830190310 | 66 | 196 | 0.0 | 0.0 | 0.00 | 0.02 | 0.02 | 82 | 9.0 |
| 20260830185310 | 66 | 196 | 0.0 | 1.0 | 0.00 | 0.02 | 0.02 | 82 | 9.1 |
| 20260830184310 | 67 | 196 | 0.0 | 1.0 | 0.00 | 0.02 | 0.02 | 81 | 8.9 |
| 20260830183310 | 67 | 198 | 0.0 | 2.0 | 0.00 | 0.02 | 0.02 | 81 | 8.9 |
| 20260830182311 | 68 | 238 | 0.0 | 0.0 | 0.00 | 0.02 | 0.02 | 80 | 9.0 |
| 20260830181310 | 68 | 238 | 0.0 | 0.0 | 0.00 | 0.02 | 0.02 | 79 | 9.1 |
| 20260830180310 | 69 | 238 | 0.0 | 0.0 | 0.00 | 0.02 | 0.02 | 78 | 9.0 |
| 20260830175311 | 69 | 238 | 0.0 | 1.0 | 0.00 | 0.02 | 0.02 | 77 | 9.2 |
| 20260830174310 | 69 | 238 | 0.0 | 2.0 | 0.00 | 0.02 | 0.02 | 77 | 9.4 |
| 20260830173310 | 70 | 239 | 0.0 | 2.0 | 0.00 | 0.02 | 0.02 | 76 | 9.5 |
| 20260830172311 | 70 | 247 | 0.0 | 2.0 | 0.00 | 0.02 | 0.02 | 74 | 9.4 |
| 20260830170311 | 71 | 246 | 0.0 | 2.0 | 0.00 | 0.02 | 0.02 | 73 | 9.4 |
| 20260830165310 | 71 | 250 | 1.0 | 4.0 | 0.00 | 0.02 | 0.02 | 73 | 9.6 |
| 20260830164310 | 71 | 233 | 2.0 | 4.0 | 0.00 | 0.02 | 0.02 | 71 | 9.6 |
| 20260830163311 | 72 | 235 | 1.0 | 7.0 | 0.00 | 0.02 | 0.02 | 70 | 9.6 |
| 20260830162310 | 72 | 244 | 3.0 | 7.0 | 0.00 | 0.02 | 0.02 | 70 | 9.8 |
| 20260830161311 | 73 | 259 | 4.0 | 10.0 | 0.00 | 0.02 | 0.02 | 69 | 9.8 |
| 20260830160310 | 72 | 215 | 2.0 | 11.0 | 0.00 | 0.02 | 0.02 | 69 | 9.8 |
| 20260830155311 | 72 | 252 | 6.0 | 14.0 | 0.00 | 0.02 | 0.02 | 68 | 9.9 |
| 20260830154311 | 72 | 262 | 5.0 | 12.0 | 0.00 | 0.02 | 0.02 | 69 | 9.9 |
| 20260830152310 | 72 | 305 | 3.0 | 10.0 | 0.00 | 0.02 | 0.02 | 70 | 9.9 |
| 20260830151310 | 72 | 261 | 4.0 | 13.0 | 0.00 | 0.02 | 0.02 | 67 | 9.9 |
| 20260830150311 | 72 | 246 | 9.0 | 18.0 | 0.00 | 0.02 | 0.02 | 66 | 9.9 |
| 20260830145310 | 73 | 296 | 4.0 | 18.0 | 0.00 | 0.02 | 0.02 | 66 | 9.9 |
| 20260830143310 | 73 | 263 | 5.0 | 13.0 | 0.00 | 0.02 | 0.02 | 66 | 9.9 |
| 20260830142310 | 74 | 265 | 7.0 | 17.0 | 0.00 | 0.02 | 0.02 | 67 | 9.7 |
| 20260830141311 | 73 | 308 | 7.0 | 16.0 | 0.00 | 0.02 | 0.02 | 68 | 9.6 |
| 20260830140310 | 72 | 271 | 8.0 | 15.0 | 0.00 | 0.02 | 0.02 | 70 | 9.8 |
| 20260830135310 | 72 | 287 | 7.0 | 15.0 | 0.00 | 0.02 | 0.02 | 72 | 9.8 |
| 20260830132310 | 71 | 296 | 7.0 | 15.0 | 0.00 | 0.02 | 0.02 | 71 | 9.7 |
| 20260830131311 | 72 | 313 | 4.0 | 13.0 | 0.00 | 0.02 | 0.02 | 73 | 9.8 |
| 20260830130310 | 72 | 290 | 4.0 | 16.0 | 0.00 | 0.02 | 0.02 | 73 | 9.8 |
| 20260830125311 | 72 | 257 | 11.0 | 21.0 | 0.00 | 0.02 | 0.02 | 71 | 9.7 |
| 20260830124310 | 72 | 265 | 6.0 | 14.0 | 0.00 | 0.02 | 0.02 | 70 | 9.7 |
| 20260830122311 | 72 | 242 | 10.0 | 15.0 | 0.00 | 0.02 | 0.02 | 71 | 9.4 |
| 20260830121310 | 72 | 242 | 9.0 | 22.0 | 0.00 | 0.02 | 0.02 | 71 | 9.4 |
| 20260830120310 | 70 | 258 | 9.0 | 20.0 | 0.00 | 0.02 | 0.02 | 77 | 9.3 |
| 20260830115310 | 69 | 290 | 6.0 | 16.0 | 0.00 | 0.02 | 0.02 | 79 | 9.2 |
| 20260830114311 | 68 | 332 | 4.0 | 9.0 | 0.00 | 0.02 | 0.02 | 84 | 9.1 |
| 20260830112310 | 68 | 336 | 4.0 | 9.0 | 0.00 | 0.02 | 0.02 | 83 | 9.0 |
| 20260830111311 | 68 | 281 | 7.0 | 19.0 | 0.00 | 0.02 | 0.02 | 79 | 8.8 |
| 20260830110310 | 69 | 263 | 12.0 | 20.0 | 0.00 | 0.02 | 0.02 | 78 | 8.8 |
| 20260830105310 | 69 | 277 | 10.0 | 20.0 | 0.00 | 0.02 | 0.02 | 80 | 8.6 |
| 20260830104310 | 68 | 257 | 7.0 | 18.0 | 0.00 | 0.02 | 0.02 | 80 | 8.5 |
| 20260830103311 | 69 | 286 | 11.0 | 22.0 | 0.00 | 0.02 | 0.02 | 80 | 8.4 |
| 20260830102310 | 69 | 250 | 8.0 | 21.0 | 0.00 | 0.02 | 0.02 | 82 | 8.4 |
| 20260830101310 | 68 | 264 | 7.0 | 21.0 | 0.00 | 0.02 | 0.02 | 85 | 8.4 |
| 20260830100310 | 67 | 279 | 7.0 | 20.0 | 0.00 | 0.02 | 0.02 | 87 | 8.2 |
| 20260830095310 | 67 | 285 | 8.0 | 20.0 | 0.00 | 0.02 | 0.02 | 87 | 8.2 |
| 20260830094311 | 67 | 264 | 5.0 | 17.0 | 0.00 | 0.02 | 0.02 | 88 | 8.2 |
| 20260830093310 | 66 | 266 | 5.0 | 18.0 | 0.00 | 0.02 | 0.02 | 88 | 8.0 |